This is the latest recevied weather packets stored in our database for station/object N5TDX. If no packets are shown the sender has not sent any weather packets the latest 1 day(s).
| Time | Temp. | Humidity | Pressure | Rain* | Wind** | Luminosity | Snow |
|---|---|---|---|---|---|---|---|
| 1778012921 | 32.78° C | 46% | 1001.8 hPa | 0 mm | 0.45 m/s, 220° | - | - |
| 1778012617 | 32.78° C | 45% | 1001.8 hPa | 0 mm | 0.45 m/s, 215° | - | - |
| 1778012314 | 32.22° C | 46% | 1001.8 hPa | 0 mm | 1.34 m/s, 212° | - | - |
| 1778012012 | 32.22° C | 46% | 1001.9 hPa | 0 mm | 0.89 m/s, 242° | - | - |
| 1778011710 | 32.22° C | 45% | 1001.9 hPa | 0 mm | 1.34 m/s, 225° | - | - |
| 1778011406 | 32.22° C | 45% | 1002 hPa | 0 mm | 1.79 m/s, 252° | - | - |
| 1778011102 | 32.22° C | 46% | 1001.9 hPa | 0 mm | 1.79 m/s, 218° | - | - |
| 1778010799 | 32.22° C | 45% | 1002.1 hPa | 0 mm | 0.89 m/s, 247° | - | - |
| 1778010496 | 32.22° C | 46% | 1002.1 hPa | 0 mm | 0.89 m/s, 276° | - | - |
| 1778010193 | 32.22° C | 44% | 1002 hPa | 0 mm | 2.24 m/s, 257° | - | - |
| 1778009888 | 32.22° C | 44% | 1002 hPa | 0 mm | 2.68 m/s, 323° | - | - |
| 1778009587 | 32.22° C | 47% | 1001.9 hPa | 0 mm | 1.34 m/s, 284° | - | - |
| 1778009284 | 32.22° C | 47% | 1001.9 hPa | 0 mm | 1.34 m/s, 244° | - | - |
| 1778008982 | 31.67° C | 47% | 1002.1 hPa | 0 mm | 0.89 m/s, 317° | - | - |
| 1778008680 | 31.67° C | 49% | 1002 hPa | 0 mm | 1.79 m/s, 207° | - | - |
| 1778008378 | 31.11° C | 49% | 1001.9 hPa | 0 mm | 1.79 m/s, 219° | - | - |
| 1778008074 | 31.11° C | 49% | 1002 hPa | 0 mm | 1.79 m/s, 238° | - | - |
| 1778007769 | 30.56° C | 50% | 1002 hPa | 0 mm | 2.68 m/s, 254° | - | - |
| 1778007466 | 31.11° C | 49% | 1001.9 hPa | 0 mm | 3.58 m/s, 262° | - | - |
| 1778007162 | 31.67° C | 50% | 1002.1 hPa | 0 mm | 1.34 m/s, 247° | - | - |
| 1778006858 | 31.11° C | 51% | 1002 hPa | 0 mm | 1.79 m/s, 220° | - | - |
| 1778006556 | 31.11° C | 51% | 1002.1 hPa | 0 mm | 1.79 m/s, 297° | - | - |
| 1778006252 | 31.11° C | 53% | 1002 hPa | 0 mm | 0.89 m/s, 272° | - | - |
| 1778005951 | 30.56° C | 54% | 1002.2 hPa | 0 mm | 0.45 m/s, 242° | - | - |
| 1778005646 | 30.56° C | 53% | 1002.2 hPa | 0 mm | 2.68 m/s, 272° | - | - |
* Rain latest hour (hover to see other rain measurements)
** Current wind speed in m/s (hover to see current wind gust speed)